Back to catalog

STARLINK-4409

AliveCommunicationsSSO
NORAD 53203·PAYLOAD·🇺🇸 United States

Launched Jul 22, 2022 from Vandenberg Space Force Base

Loading…

Next Passes (next 24 hours)

TLE

FreshSource: CelesTrak SupGP

Epoch: Sep 15, 2026, 02:22 UTC

1 53203C 22084Q   26258.09909722  .00053168  00000+0  16505-2 0  2589
2 53203  97.2836 313.9328 0001538  85.4927 279.0161 15.33412373    10

Track STARLINK-4409 in real time with AllMySat

Download on the App Store